Location: Newark
(45.4422°N, 16.2769°E)
Time: 12:52:38
(UTC+00:00)

Tiros 1 despin weight - Pass Details

Date: 20 December 2019
Orbit: 594 x 642 km, 48.2° (Epoch: 27 January)

Event Time Altitude Azimuth Distance (km) Brightness Sun altitude
Rises 05:54:36 0° 289° (WNW) 2,879 - -6.3°
Exits shadow 05:56:18 - 285° (WNW) 2,232 ? -6.1°
Reaches altitude 10° 05:57:01 10° 282° (WNW) 1,963 ? -5.9°
Maximum altitude 06:01:14 40° 213° (SSW) 898 ? -5.3°
Drops below altitude 10° 06:05:22 10° 144° (SE) 1,930 ? -4.7°
Sets 06:07:43 0° 137° (SE) 2,824 ? -4.3°
